[[{"header":{"parameterUnit":"m.s-1","parameterCategory":2,"la1":30.2991,"la2":30.254,"lo1":-89.0895,"lo2":-89.0444,"dy":0.0017,"dx":0.0017,"nx":28,"ny":28,"refTime":"2024-10-21T03:00:00:Z","depth":"0","parameterNumber":2,"parameterNumberName":"U-component_of_CURRENTS"},"data":[0,0,0,0,0,0,0,0,0,0,0,0,0,0,0,0,0,0,0,0,0,0,0,0,0,0,0,0,0,0,0,0,0,0,0,0,0,0,0,0,0,0,0,0,0,0,0,0,0,0,0,0,0,0,0,0,0,0,0.2163,0.2163,0,0.2092,0.2091,0.209,0.2066,0.2066,0.2067,0.2067,0.2018,0.2017,0.2015,0,0,0,0,0,0,0,0,0,0,0,0,0,0.2283,0.2281,0.2164,0.2163,0.2162,0.2092,0.2091,0.209,0.2066,0.2066,0.2067,0.2067,0.2019,0.2017,0.2015,0,0,0,0,0,0,0,0,0,0,0,0,0,0.2222,0.228,0.2164,0.2142,0.214,0.2092,0.2091,0.209,0.2066,0.2066,0.2067,0.2067,0.202,0.2017,0.2015,0.1988,0,0,0.2007,0.2006,0,0,0,0,0,0,0,0,0.2226,0.2218,0.2146,0.2144,0.2141,0.2089,0.2115,0.2057,0.2066,0.2093,0.2067,0.2068,0.2044,0.204,0.2024,0.1986,0.1984,0.2007,0.2006,0.2004,0.2004,0,0,0,0,0,0,0,0.223,0.2221,0.2134,0.2145,0.2142,0.2138,0.2129,0.2104,0.2066,0.209,0.2089,0.2082,0.2043,0.2026,0.2022,0.1983,0.2007,0.2005,0.2003,0.2002,0.1965,0.1966,0,0,0,0,0,0,0.224,0.2225,0.2137,0.2132,0.2187,0.2135,0.2126,0.2104,0.2066,0.206,0.2082,0.2081,0.203,0.2025,0.2021,0.2025,0.2004,0.2002,0.2001,0.1965,0.1966,0.1966,0,0,0,0,0,0,0.2242,0.2232,0.2139,0.2179,0.2167,0.2132,0.2109,0.2103,0.2093,0.2059,0.2054,0.208,0.203,0.2024,0.2005,0.2022,0.2001,0.1999,0.1964,0.1965,0.1966,0.201,0,0,0,0,0,0,0.2246,0.2233,0.2217,0.2179,0.2165,0.2116,0.2108,0.2101,0.2088,0.2087,0.2055,0.2051,0.203,0.2009,0.2003,0.2018,0.1997,0.1964,0.1965,0.1966,0.2008,0.2012,0.2016,0,0,0,0,0,0.225,0.2221,0.2217,0.2206,0.2145,0.2116,0.2108,0.2086,0.2088,0.2081,0.2064,0.2052,0.2012,0.2007,0.2,0.2015,0.1963,0.1964,0.1965,0.2006,0.2011,0.2016,0,0,0,0,0,0,0.2255,0.2215,0.2209,0.2167,0.215,0.2112,0.2096,0.2091,0.207,0.207,0.2048,0.2041,0.2035,0.2016,0.2012,0.2008,0.199,0.1989,0.2023,0.2028,0.2032,0.2035,0.1995,0,0,0,0,0,0.2252,0.2225,0.2195,0.2163,0.2154,0.2131,0.2116,0.2106,0.2084,0.2075,0.2057,0.2041,0.2031,0.2023,0.2004,0.1994,0.2007,0.2002,0.2006,0.201,0.2008,0.2049,0.2057,0.197,0.197,0.197,0,0,0.2241,0.222,0.22,0.2164,0.2146,0.2133,0.2123,0.2102,0.2097,0.2073,0.2059,0.205,0.2031,0.2024,0.202,0.2011,0.2044,0.2011,0.2014,0.201,0.2051,0.206,0.2067,0.197,0.197,0.197,0,0,0.2219,0.2193,0.2171,0.2161,0.2142,0.213,0.2131,0.2105,0.2099,0.2083,0.2077,0.2079,0.2046,0.2047,0.2041,0.2055,0.2064,0.2054,0.2075,0.2115,0.2123,0.213,0.2174,0.2185,0.2056,0.2056,0.2056,0,0.2217,0.2177,0.2161,0.215,0.214,0.2135,0.2123,0.2115,0.2091,0.2091,0.2083,0.2073,0.2059,0.2071,0.2077,0.2065,0.2091,0.2059,0.2122,0.2129,0.2135,0.2179,0.219,0.2059,0.2058,0.2058,0.2058,0,0.2184,0.2161,0.2148,0.2135,0.2128,0.2111,0.2109,0.2109,0.2107,0.2104,0.2112,0.21,0.21,0.2103,0.2089,0.2131,0.2137,0.2125,0.2113,0.2147,0.2191,0.2202,0.2062,0.2061,0.206,0.206,0,0,0.2171,0.213,0.2132,0.2119,0.2117,0.2104,0.2113,0.2111,0.2121,0.2119,0.2136,0.2131,0.2142,0.2137,0.2139,0.2169,0.2242,0.2167,0.2168,0.2217,0.2343,0.2274,0.2279,0.2247,0.2249,0.225,0.2362,0,0.2156,0.2119,0.2112,0.2093,0.2075,0.2086,0.2093,0.2103,0.2112,0.2132,0.215,0.2163,0.2152,0.2164,0.2196,0.2225,0.2269,0.2213,0.2297,0.23,0.2239,0.2288,0.2133,0.2212,0.2373,0.2374,0.2376,0,0.2141,0.2115,0.2082,0.2065,0.206,0.2059,0.2076,0.208,0.2121,0.2132,0.2167,0.2188,0.2239,0.2224,0.231,0.2277,0.2316,0.2339,0.2344,0.2267,0.2249,0.22,0.2226,0.2133,0.2392,0.2391,0.239,0,0.2137,0.2104,0.207,0.2064,0.2046,0.2047,0.2049,0.2081,0.2098,0.2145,0.2184,0.223,0.2272,0.2324,0.2385,0.2354,0.2487,0.245,0.243,0.2426,0.2301,0.2282,0.2245,0.2522,0.2522,0.2521,0.2521,0,0.2123,0.21,0.2062,0.2043,0.2029,0.2029,0.2038,0.2053,0.21,0.2135,0.2189,0.2237,0.23,0.2385,0.242,0.2468,0.2525,0.2444,0.2451,0.2312,0.2293,0.221,0.2182,0.2526,0.2525,0.2524,0.2523,0,0.2121,0.2089,0.2056,0.2026,0.2021,0.2015,0.2032,0.2047,0.2096,0.2154,0.2181,0.2268,0.2352,0.2434,0.2524,0.2509,0.2473,0.2572,0.2406,0.2389,0.221,0.2191,0.2131,0.2065,0.2532,0.2531,0.2531,0,0.2102,0.2083,0.2048,0.2032,0.2015,0.2009,0.2014,0.2042,0.2067,0.2167,0.2201,0.2306,0.2358,0.2474,0.2473,0.253,0.2463,0.2406,0.2295,0.2185,0.2171,0.2112,0.2057,0.2166,0.2162,0.2159,0.2156,0,0.2077,0.2074,0.2044,0.2019,0.2008,0.1994,0.2,0.2023,0.2071,0.2129,0.219,0.224,0.2332,0.2289,0.236,0.2362,0.2233,0.2339,0.227,0.1913,0.1804,0.1747,0.2124,0.2128,0.2131,0.2133,0.2135,0.2136,0.2064,0.2048,0.2017,0.1989,0.198,0.1958,0.1934,0.1961,0.1986,0.2034,0.2118,0.2146,0.2127,0.2167,0.2172,0.201,0.2057,0.1886,0.1889,0.1854,0.1716,0.203,0.2006,0.2008,0.201,0.2011,0.2013,0,0.2029,0.2008,0.1985,0.1933,0.1903,0.1911,0.1905,0.1873,0.1871,0.1937,0.1968,0.1924,0.1849,0.1827,0.1679,0.1573,0.1511,0.1504,0.1375,0.1357,0.1666,0.1571,0.1396,0.1396,0.1396,0.1397,0.1397,0.1397,0.2003,0.1964,0.1943,0.1857,0.1826,0.1751,0.173,0.1707,0.1721,0.1686,0.1656,0.1677,0.1618,0.1457,0.1276,0.1232,0.1131,0.1052,0.1109,0.13,0.1335,0.1368,0.127,0.1035,0.1035,0.0698,0.0695,0.0693]},{"header":{"parameterUnit":"m.s-1","parameterCategory":2,"la1":30.2991,"la2":30.254,"lo1":-89.0895,"lo2":-89.0444,"dy":0.0017,"dx":0.0017,"nx":28,"ny":28,"refTime":"2024-10-21T03:00:00:Z","depth":"0","parameterNumber":3,"parameterNumberName":"V-component_of_CURRENTS"},"data":[0,0,0,0,0,0,0,0,0,0,0,0,0,0,0,0,0,0,0,0,0,0,0,0,0,0,0,0,0,0,0,0,0,0,0,0,0,0,0,0,0,0,0,0,0,0,0,0,0,0,0,0,0,0,0,0,0,0,-0.0703,-0.0703,0,-0.0706,-0.0706,-0.0706,-0.0707,-0.0707,-0.0707,-0.0708,-0.0753,-0.0753,-0.0754,0,0,0,0,0,0,0,0,0,0,0,0,0,-0.0684,-0.0684,-0.0703,-0.0703,-0.0703,-0.0707,-0.0706,-0.0706,-0.0706,-0.0707,-0.0707,-0.0708,-0.0752,-0.0753,-0.0754,0,0,0,0,0,0,0,0,0,0,0,0,0,-0.0686,-0.0684,-0.0703,-0.0707,-0.0708,-0.0707,-0.0706,-0.0706,-0.0706,-0.0707,-0.0707,-0.0708,-0.0752,-0.0753,-0.0755,-0.0752,0,0,-0.0759,-0.0759,0,0,0,0,0,0,0,0,-0.0686,-0.0686,-0.0706,-0.0707,-0.0708,-0.071,-0.0716,-0.0725,-0.0706,-0.0702,-0.0708,-0.0708,-0.0745,-0.0747,-0.0739,-0.0754,-0.0756,-0.0759,-0.0759,-0.076,-0.076,0,0,0,0,0,0,0,-0.0686,-0.0686,-0.07,-0.0707,-0.0708,-0.0706,-0.0706,-0.0717,-0.0718,-0.0703,-0.0704,-0.0711,-0.0745,-0.0738,-0.0741,-0.0756,-0.0759,-0.076,-0.0761,-0.0761,-0.0772,-0.0771,0,0,0,0,0,0,-0.0694,-0.0686,-0.07,-0.07,-0.0703,-0.0706,-0.0706,-0.0705,-0.0717,-0.072,-0.0711,-0.0711,-0.0736,-0.0739,-0.0742,-0.0726,-0.076,-0.0761,-0.0762,-0.0772,-0.0772,-0.0771,0,0,0,0,0,0,-0.0693,-0.0695,-0.07,-0.0697,-0.0698,-0.0706,-0.0705,-0.0705,-0.0703,-0.0723,-0.0726,-0.0709,-0.0736,-0.0741,-0.0749,-0.0729,-0.0762,-0.0763,-0.0773,-0.0772,-0.0771,-0.0702,0,0,0,0,0,0,-0.0693,-0.0694,-0.0685,-0.0697,-0.0699,-0.0689,-0.0705,-0.0705,-0.0708,-0.0709,-0.0723,-0.0727,-0.0737,-0.0747,-0.075,-0.0731,-0.0764,-0.0773,-0.0773,-0.0772,-0.0705,-0.0699,-0.0694,0,0,0,0,0,-0.0692,-0.067,-0.0684,-0.0686,-0.0689,-0.0688,-0.0687,-0.0693,-0.0708,-0.0694,-0.0711,-0.0727,-0.0744,-0.0747,-0.0752,-0.0732,-0.0774,-0.0773,-0.0772,-0.0708,-0.0701,-0.0694,0,0,0,0,0,0,-0.0649,-0.0669,-0.0684,-0.0669,-0.0679,-0.069,-0.0675,-0.0693,-0.0693,-0.0697,-0.0721,-0.0726,-0.0725,-0.0742,-0.0746,-0.0734,-0.0761,-0.0761,-0.0711,-0.0705,-0.0699,-0.0673,-0.0765,0,0,0,0,0,-0.064,-0.0632,-0.0656,-0.0642,-0.0647,-0.0665,-0.0664,-0.0676,-0.0686,-0.0686,-0.0699,-0.0714,-0.0722,-0.0725,-0.0735,-0.0729,-0.072,-0.072,-0.0715,-0.071,-0.0692,-0.0675,-0.0666,-0.0768,-0.0768,-0.0768,0,0,-0.0619,-0.063,-0.0625,-0.0634,-0.064,-0.0628,-0.0664,-0.0661,-0.0649,-0.0693,-0.0672,-0.0697,-0.0718,-0.0707,-0.0708,-0.0719,-0.0672,-0.0708,-0.0704,-0.0688,-0.0673,-0.0663,-0.0654,-0.0767,-0.0767,-0.0767,0,0,-0.0573,-0.0586,-0.0564,-0.057,-0.0585,-0.0597,-0.06,-0.0615,-0.0615,-0.0613,-0.0639,-0.0647,-0.0662,-0.0662,-0.0668,-0.064,-0.0647,-0.0654,-0.0598,-0.0583,-0.0574,-0.0566,-0.0518,-0.0506,-0.0647,-0.0647,-0.0647,0,-0.0551,-0.0525,-0.0556,-0.0538,-0.0533,-0.0583,-0.0557,-0.0563,-0.0578,-0.0569,-0.0597,-0.0605,-0.0632,-0.0608,-0.0603,-0.0624,-0.0611,-0.062,-0.0573,-0.0565,-0.0558,-0.0511,-0.0499,-0.0643,-0.0644,-0.0644,-0.0644,0,-0.049,-0.047,-0.0455,-0.0451,-0.0451,-0.0436,-0.0461,-0.0459,-0.0481,-0.0487,-0.0477,-0.0511,-0.0513,-0.0528,-0.056,-0.0524,-0.0528,-0.057,-0.0584,-0.0543,-0.0497,-0.0485,-0.0638,-0.064,-0.0641,-0.0641,0,0,-0.045,-0.0417,-0.0412,-0.0389,-0.0404,-0.0394,-0.038,-0.0369,-0.0344,-0.0371,-0.0325,-0.0365,-0.0393,-0.0403,-0.0444,-0.0437,-0.0382,-0.0482,-0.0482,-0.0422,-0.0319,-0.0304,-0.0291,-0.0421,-0.042,-0.0418,-0.0297,0,-0.0394,-0.0325,-0.0333,-0.0276,-0.0246,-0.028,-0.0256,-0.0259,-0.0267,-0.0234,-0.0272,-0.0253,-0.0343,-0.0341,-0.0351,-0.0379,-0.0353,-0.0409,-0.0378,-0.0376,-0.0359,-0.0278,-0.0269,-0.016,-0.0286,-0.0284,-0.0283,0,-0.0341,-0.0298,-0.0222,-0.0178,-0.0169,-0.0149,-0.0119,-0.01,-0.0086,-0.009,-0.0093,-0.0123,-0.0121,-0.0202,-0.0212,-0.0246,-0.0271,-0.0291,-0.0288,-0.0289,-0.034,-0.0228,-0.0135,-0.0201,-0.0266,-0.0267,-0.0269,0,-0.0293,-0.0227,-0.0157,-0.0143,-0.0103,-0.008,-0.0065,-0.0054,-0.0014,0.0011,0.005,0.002,0.0034,-0.0019,-0.0089,-0.0145,-0.0077,-0.016,-0.0153,-0.0151,-0.0142,-0.0143,-0.01,-0.0134,-0.0135,-0.0135,-0.0135,0,-0.0234,-0.0182,-0.0127,-0.009,-0.0011,-0.0016,0.006,0.0066,0.0111,0.019,0.0131,0.0192,0.0076,0.0084,-0.0006,-0.0025,-0.001,-0.0105,-0.0112,-0.0117,-0.0117,-0.0177,-0.023,-0.013,-0.0131,-0.0132,-0.0133,0,-0.019,-0.0153,-0.0071,-0.0007,0.0014,0.0069,0.0141,0.0203,0.0225,0.0332,0.0352,0.0348,0.0354,0.0267,0.0216,0.0111,0.0049,0.0067,0.0087,0.0079,-0.0016,-0.0066,-0.0014,-0.0045,0.0094,0.0095,0.0096,0,-0.0148,-0.01,-0.0009,0.005,0.0083,0.0161,0.0221,0.0254,0.0328,0.0435,0.0506,0.0545,0.0585,0.0529,0.037,0.0276,0.016,0.0201,0.0081,0.0022,-0.0039,-0.0089,-0.0125,0.0134,0.0135,0.0136,0.0137,0,-0.0066,-0.0042,0.0027,0.014,0.0216,0.0306,0.0393,0.0464,0.0531,0.0617,0.0734,0.0781,0.0743,0.0647,0.051,0.0411,0.0152,0.0218,0.0148,0.0007,-0.0033,-0.0081,0.0029,0.0146,0.0145,0.0144,0.0144,0.0144,-0.0004,0.0056,0.0142,0.0242,0.0333,0.0439,0.0503,0.0607,0.0725,0.0855,0.09,0.0987,0.0842,0.0655,0.053,0.0277,0.0249,0.0163,0.0118,0.0082,0.0018,0.0169,0.0267,0.0267,0.0267,0.0267,0.0267,0,0.0086,0.0145,0.0246,0.0357,0.0449,0.0479,0.0612,0.0674,0.0803,0.0955,0.1049,0.1048,0.0886,0.067,0.0341,0.0183,0.0088,0.0099,0.0016,-0.0012,0.0128,0.0092,0.0168,0.0168,0.0168,0.0168,0.0168,0.0168,0.0145,0.0243,0.0279,0.043,0.0501,0.0601,0.0663,0.0765,0.0876,0.1033,0.1106,0.1161,0.0985,0.0478,0.0137,0.006,-0.0074,-0.0067,-0.0134,-0.0068,-0.0067,-0.0066,-0.0112,-0.0079,-0.008,-0.0268,-0.027,-0.0272]}],[{"header":{"parameterUnit":"m.s-1","parameterCategory":2,"la1":30.2991,"la2":30.254,"lo1":-89.0895,"lo2":-89.0444,"dy":0.0017,"dx":0.0017,"nx":28,"ny":28,"refTime":"2024-10-21T03:00:00:Z","depth":"2","parameterNumber":2,"parameterNumberName":"U-component_of_CURRENTS"},"data":[0,0,0,0,0,0,0,0,0,0,0,0,0,0,0,0,0,0,0,0,0,0,0,0,0,0,0,0,0,0,0,0,0,0,0,0,0,0,0,0,0,0,0,0,0,0,0,0,0,0,0,0,0,0,0,0,0,0,0.1601,0.1602,0,0.1633,0.1633,0.1633,0.168,0.1682,0.1683,0.1684,0.1686,0.1685,0.1684,0,0,0,0,0,0,0,0,0,0,0,0,0,0.1588,0.1588,0.1601,0.1602,0.1603,0.1633,0.1633,0.1633,0.168,0.1682,0.1684,0.1685,0.1687,0.1685,0.1684,0,0,0,0,0,0,0,0,0,0,0,0,0,0.1599,0.1587,0.1601,0.1634,0.1638,0.1633,0.1633,0.1633,0.168,0.1682,0.1684,0.1686,0.1687,0.1685,0.1683,0.1631,0,0,0.1678,0.1677,0,0,0,0,0,0,0,0,0.1598,0.1598,0.1629,0.1632,0.1636,0.166,0.163,0.1633,0.1679,0.1658,0.1685,0.1687,0.1677,0.1676,0.167,0.1631,0.1631,0.1678,0.1677,0.1676,0.1675,0,0,0,0,0,0,0,0.1597,0.1597,0.1608,0.163,0.1634,0.1651,0.1654,0.163,0.165,0.166,0.1665,0.1677,0.1678,0.1671,0.167,0.1632,0.1678,0.1676,0.1675,0.1674,0.1683,0.1684,0,0,0,0,0,0,0.1602,0.1596,0.1607,0.161,0.1629,0.165,0.1653,0.1646,0.1652,0.1656,0.1675,0.1679,0.1673,0.1672,0.167,0.1702,0.1676,0.1674,0.1673,0.1682,0.1683,0.1685,0,0,0,0,0,0,0.1601,0.1602,0.1606,0.161,0.1612,0.1649,0.164,0.1645,0.1658,0.1665,0.1668,0.1685,0.1675,0.1673,0.1685,0.1699,0.1673,0.1672,0.168,0.1682,0.1684,0.1704,0,0,0,0,0,0,0.16,0.16,0.1613,0.1609,0.1613,0.1618,0.1638,0.1645,0.1664,0.167,0.1673,0.1675,0.1676,0.1688,0.1683,0.1696,0.167,0.1678,0.1681,0.1683,0.1702,0.1707,0.1711,0,0,0,0,0,0.1599,0.1607,0.1612,0.1615,0.1622,0.1619,0.1621,0.1651,0.1663,0.1668,0.1685,0.1676,0.1701,0.1687,0.1681,0.1694,0.1677,0.168,0.1683,0.17,0.1706,0.1711,0,0,0,0,0,0,0.1605,0.1613,0.1619,0.1628,0.1631,0.163,0.1638,0.1651,0.1665,0.1675,0.1678,0.168,0.1704,0.1693,0.1677,0.1708,0.1692,0.1694,0.1707,0.1712,0.1717,0.1744,0.1669,0,0,0,0,0,0.1611,0.1618,0.162,0.1627,0.1621,0.1626,0.1634,0.1652,0.1659,0.1668,0.1679,0.1693,0.1704,0.1706,0.1716,0.171,0.1717,0.1721,0.1726,0.1729,0.1751,0.1775,0.1783,0.1694,0.1694,0.1694,0,0,0.1612,0.1621,0.1625,0.163,0.1623,0.1626,0.1634,0.1642,0.1663,0.1662,0.1693,0.1706,0.171,0.1729,0.1737,0.1722,0.1756,0.1733,0.1736,0.1756,0.1779,0.1787,0.1795,0.1696,0.1696,0.1696,0,0,0.1616,0.1617,0.1624,0.1624,0.1634,0.1636,0.164,0.1649,0.1669,0.1692,0.1712,0.1747,0.1743,0.1769,0.1774,0.1804,0.1785,0.1796,0.1828,0.185,0.1857,0.1864,0.187,0.1877,0.179,0.179,0.179,0,0.1628,0.1625,0.1626,0.1629,0.1634,0.1639,0.1641,0.1655,0.1682,0.1709,0.1713,0.1762,0.1772,0.1801,0.183,0.1815,0.1813,0.1801,0.1855,0.1862,0.1868,0.1873,0.188,0.1791,0.1791,0.1791,0.1791,0,0.1617,0.1632,0.1624,0.1632,0.164,0.1636,0.1653,0.1682,0.1708,0.1738,0.1787,0.1804,0.184,0.1845,0.1848,0.1896,0.1874,0.1861,0.1837,0.1878,0.188,0.1888,0.1793,0.1793,0.1792,0.1792,0,0,0.1612,0.1618,0.1623,0.1634,0.164,0.1646,0.1676,0.1712,0.1744,0.1787,0.183,0.1878,0.19,0.191,0.191,0.1936,0.1984,0.192,0.1921,0.192,0.2017,0.1951,0.1952,0.1967,0.1969,0.197,0.1994,0,0.1605,0.1615,0.1624,0.1644,0.1641,0.1664,0.1686,0.1734,0.1772,0.182,0.1863,0.1906,0.1913,0.1931,0.1959,0.1986,0.2007,0.1979,0.1984,0.1985,0.1916,0.1961,0.1786,0.1789,0.2001,0.2003,0.2003,0,0.1595,0.1606,0.1616,0.165,0.1649,0.1669,0.1715,0.1745,0.1814,0.1841,0.1896,0.1931,0.1998,0.1985,0.2049,0.2024,0.2035,0.2046,0.2046,0.1989,0.1934,0.1787,0.1794,0.2016,0.2015,0.2014,0.2013,0,0.1586,0.1612,0.1623,0.1627,0.1657,0.1683,0.1708,0.1765,0.1803,0.1871,0.1908,0.1966,0.2008,0.2039,0.2089,0.207,0.2142,0.211,0.2056,0.205,0.191,0.1888,0.2156,0.2156,0.2156,0.2156,0.2156,0,0.1568,0.1587,0.1624,0.1628,0.165,0.1683,0.1723,0.1753,0.1816,0.1859,0.1924,0.1956,0.2029,0.2081,0.21,0.2107,0.2151,0.2082,0.2062,0.191,0.1889,0.2095,0.2087,0.2157,0.2157,0.2157,0.2157,0,0.1553,0.1569,0.1593,0.1632,0.1644,0.1668,0.1726,0.1759,0.1816,0.1872,0.1905,0.1984,0.2035,0.2091,0.2145,0.212,0.2135,0.2122,0.1936,0.1894,0.202,0.2014,0.2058,0.2056,0.2054,0.2053,0.2052,0,0.1549,0.1557,0.1592,0.1605,0.1621,0.1663,0.1682,0.1744,0.1777,0.1875,0.1893,0.1984,0.1997,0.2048,0.2038,0.2043,0.2106,0.188,0.1822,0.2039,0.2016,0.2011,0.2007,0.1636,0.1632,0.1628,0.1625,0,0.1536,0.1547,0.1553,0.1576,0.1601,0.1621,0.1659,0.1684,0.1756,0.1788,0.1822,0.1852,0.1904,0.1822,0.1847,0.1828,0.1864,0.1804,0.2089,0.1689,0.1643,0.1619,0.1629,0.1593,0.1596,0.1598,0.16,0.1601,0.1518,0.152,0.1523,0.154,0.1564,0.156,0.1545,0.1585,0.1598,0.1613,0.1687,0.1653,0.1681,0.1611,0.157,0.155,0.168,0.1597,0.1607,0.1622,0.157,0.1524,0.144,0.1443,0.1445,0.1446,0.1448,0,0.1475,0.1479,0.149,0.1475,0.1469,0.1509,0.1508,0.1466,0.143,0.1458,0.1448,0.1312,0.1259,0.1307,0.1217,0.1218,0.1203,0.1171,0.1132,0.1165,0.1194,0.1119,0.0871,0.0869,0.0868,0.0866,0,0,0.1449,0.1423,0.1419,0.1371,0.1384,0.1327,0.131,0.1254,0.1234,0.1148,0.111,0.1184,0.1246,0.1034,0.1011,0.0923,0.1035,0.0884,0.1347,0.1333,0.136,0.144,0.1363,0,0,0,0,0]},{"header":{"parameterUnit":"m.s-1","parameterCategory":2,"la1":30.2991,"la2":30.254,"lo1":-89.0895,"lo2":-89.0444,"dy":0.0017,"dx":0.0017,"nx":28,"ny":28,"refTime":"2024-10-21T03:00:00:Z","depth":"2","parameterNumber":3,"parameterNumberName":"V-component_of_CURRENTS"},"data":[0,0,0,0,0,0,0,0,0,0,0,0,0,0,0,0,0,0,0,0,0,0,0,0,0,0,0,0,0,0,0,0,0,0,0,0,0,0,0,0,0,0,0,0,0,0,0,0,0,0,0,0,0,0,0,0,0,0,0.0371,0.037,0,0.0272,0.0271,0.027,0.019,0.0189,0.0188,0.0188,0.015,0.015,0.015,0,0,0,0,0,0,0,0,0,0,0,0,0,0.0401,0.0401,0.0372,0.037,0.0369,0.0272,0.0271,0.0269,0.019,0.0189,0.0188,0.0187,0.015,0.015,0.015,0,0,0,0,0,0,0,0,0,0,0,0,0,0.0352,0.0401,0.0372,0.0319,0.0313,0.0273,0.0271,0.0269,0.019,0.0189,0.0188,0.0187,0.0151,0.015,0.0149,0.0167,0,0,0.0148,0.0148,0,0,0,0,0,0,0,0,0.0355,0.0351,0.0328,0.0322,0.0316,0.0243,0.0267,0.0238,0.019,0.0236,0.0188,0.0187,0.0189,0.0185,0.0166,0.0165,0.0164,0.0148,0.0148,0.0147,0.0147,0,0,0,0,0,0,0,0.0359,0.0355,0.0331,0.0327,0.032,0.0269,0.0261,0.026,0.0219,0.0232,0.0226,0.0217,0.0186,0.0167,0.0165,0.0163,0.0148,0.0147,0.0147,0.0147,0.0131,0.0131,0,0,0,0,0,0,0.038,0.0359,0.0334,0.0328,0.0335,0.027,0.0261,0.0267,0.0218,0.0209,0.0218,0.0214,0.0168,0.0165,0.0163,0.0161,0.0147,0.0147,0.0146,0.0132,0.0131,0.0131,0,0,0,0,0,0,0.0381,0.0379,0.0338,0.0341,0.0332,0.0271,0.0277,0.0265,0.0238,0.0207,0.0199,0.0203,0.0167,0.0164,0.0154,0.016,0.0147,0.0146,0.0132,0.0132,0.0131,0.0171,0,0,0,0,0,0,0.0383,0.0381,0.0382,0.0343,0.0333,0.0311,0.0278,0.0264,0.0236,0.0229,0.0192,0.0187,0.0166,0.0155,0.0153,0.0159,0.0146,0.0132,0.0132,0.0131,0.0169,0.0172,0.0174,0,0,0,0,0,0.0384,0.0387,0.0383,0.038,0.0341,0.0311,0.0301,0.0252,0.0236,0.0224,0.02,0.0188,0.0152,0.0155,0.0153,0.0159,0.0132,0.0132,0.0131,0.0168,0.0171,0.0174,0,0,0,0,0,0,0.0386,0.0378,0.0373,0.037,0.0345,0.0298,0.0282,0.0256,0.0226,0.0221,0.0193,0.0187,0.0177,0.0164,0.0167,0.0151,0.0138,0.0138,0.0167,0.017,0.0172,0.0174,0.0145,0,0,0,0,0,0.0396,0.0399,0.038,0.0373,0.0372,0.0332,0.0311,0.0282,0.0253,0.0237,0.0209,0.0187,0.0177,0.017,0.0153,0.0154,0.0139,0.0154,0.0156,0.0158,0.0157,0.0141,0.0142,0.0131,0.0131,0.0131,0,0,0.0389,0.0387,0.0385,0.0374,0.0356,0.0347,0.0316,0.029,0.0275,0.0243,0.0214,0.0196,0.0178,0.0168,0.0164,0.0158,0.0153,0.0158,0.016,0.0157,0.0141,0.0142,0.0143,0.0131,0.0131,0.0131,0,0,0.0384,0.039,0.0395,0.0385,0.0366,0.0348,0.0347,0.0307,0.0284,0.0263,0.0236,0.0217,0.0197,0.0178,0.0172,0.0179,0.0165,0.0178,0.0194,0.0179,0.018,0.0181,0.0167,0.0167,0.0181,0.0181,0.0181,0,0.0374,0.0387,0.0385,0.0388,0.0381,0.0357,0.0355,0.0334,0.0286,0.0279,0.0257,0.0222,0.0199,0.0201,0.0192,0.0185,0.0177,0.0189,0.0183,0.0184,0.0184,0.0169,0.0168,0.0182,0.0182,0.0182,0.0182,0,0.0379,0.0384,0.0387,0.0395,0.0386,0.0379,0.0365,0.0349,0.0326,0.0302,0.0288,0.0252,0.0232,0.0223,0.0208,0.0204,0.0199,0.0189,0.018,0.0187,0.0172,0.0169,0.0185,0.0184,0.0184,0.0183,0,0,0.0368,0.0389,0.0387,0.0398,0.0392,0.0387,0.0382,0.0374,0.0377,0.0332,0.0331,0.0295,0.0276,0.0267,0.0248,0.0229,0.0214,0.0211,0.0209,0.0204,0.0187,0.0175,0.0171,0.0211,0.021,0.021,0.0178,0,0.0371,0.0389,0.0393,0.04,0.0414,0.0405,0.0409,0.0396,0.0381,0.0373,0.0346,0.0334,0.0298,0.0292,0.0268,0.0232,0.021,0.0224,0.0175,0.0173,0.0167,0.0168,0.0189,0.0162,0.0176,0.0176,0.0175,0,0.0376,0.0392,0.0409,0.0428,0.0435,0.0433,0.0447,0.0445,0.044,0.043,0.0415,0.0391,0.0363,0.0327,0.0268,0.0283,0.0234,0.0199,0.0197,0.0169,0.0157,0.0155,0.0157,0.0171,0.0172,0.0172,0.0172,0,0.0382,0.0399,0.0419,0.0423,0.0442,0.0447,0.0456,0.0459,0.0476,0.0467,0.0476,0.0438,0.0426,0.0362,0.0282,0.0277,0.0217,0.0201,0.0143,0.0142,0.014,0.0139,0.015,0.015,0.015,0.015,0.015,0,0.0389,0.0401,0.0425,0.0434,0.0464,0.0469,0.0498,0.0501,0.0521,0.0553,0.0511,0.0523,0.0434,0.0388,0.0305,0.0223,0.0233,0.0144,0.0132,0.0154,0.0155,0.0145,0.0145,0.0149,0.0149,0.0149,0.015,0,0.039,0.0406,0.0431,0.0457,0.0468,0.049,0.0533,0.056,0.0574,0.0615,0.0615,0.0589,0.0532,0.0439,0.0337,0.0261,0.0174,0.0138,0.0169,0.0161,0.0103,0.0105,0.0073,0.0072,0.0071,0.0071,0.0071,0,0.0394,0.0409,0.0447,0.0472,0.0483,0.052,0.0554,0.0581,0.0618,0.0657,0.0683,0.0643,0.0619,0.0472,0.0335,0.0198,0.0174,0.0117,0.0099,0.0103,0.0095,0.0098,0.0101,0.0114,0.0114,0.0114,0.0114,0,0.0402,0.0414,0.0435,0.0489,0.0525,0.0574,0.0622,0.0663,0.0708,0.0743,0.0777,0.0759,0.0636,0.0506,0.0323,0.0229,0.014,0.0111,0.0112,0.0129,0.0139,0.0131,0.0134,0.0113,0.0113,0.0113,0.0113,0.0113,0.0406,0.0422,0.0455,0.0503,0.0554,0.0617,0.0662,0.0723,0.0787,0.0845,0.0832,0.0807,0.0677,0.044,0.0292,0.0136,0.0141,0.0076,0.0077,0.0078,0.0088,0.0096,0.0064,0.0064,0.0064,0.0064,0.0063,0,0.0411,0.043,0.0471,0.0528,0.0582,0.0613,0.0703,0.0754,0.0832,0.0869,0.0888,0.0746,0.0613,0.0458,0.0235,0.0097,0.0088,0.0046,0.0072,0.0074,0.0075,0.0085,0.006,0.006,0.0059,0.0059,0,0,0.0413,0.0441,0.0458,0.0534,0.0583,0.0663,0.0717,0.08,0.0848,0.0874,0.0856,0.0828,0.065,0.0483,0.0313,0.0188,0.0155,0.0156,0.0176,0.023,0.0232,0.0112,0.0132,0,0,0,0,0]}],[{"header":{"parameterUnit":"m.s-1","parameterCategory":2,"la1":30.2991,"la2":30.254,"lo1":-89.0895,"lo2":-89.0444,"dy":0.0017,"dx":0.0017,"nx":28,"ny":28,"refTime":"2024-10-21T03:00:00:Z","depth":"4","parameterNumber":2,"parameterNumberName":"U-component_of_CURRENTS"},"data":[0,0,0,0,0,0,0,0,0,0,0,0,0,0,0,0,0,0,0,0,0,0,0,0,0,0,0,0,0,0,0,0,0,0,0,0,0,0,0,0,0,0,0,0,0,0,0,0,0,0,0,0,0,0,0,0,0,0,0.0724,0.0725,0,0.0796,0.0797,0.0798,0.0841,0.0842,0.0842,0.0842,0.0889,0.089,0.0891,0,0,0,0,0,0,0,0,0,0,0,0,0,0.0659,0.066,0.0724,0.0725,0.0726,0.0796,0.0797,0.0798,0.0841,0.0842,0.0842,0.0842,0.0889,0.089,0.0891,0,0,0,0,0,0,0,0,0,0,0,0,0,0.0703,0.066,0.0724,0.0757,0.0761,0.0796,0.0797,0.0798,0.0841,0.0842,0.0842,0.0843,0.0889,0.089,0.0891,0.0888,0,0,0.0895,0.0896,0,0,0,0,0,0,0,0,0.07,0.0705,0.0751,0.0755,0.076,0.0812,0.0792,0.0828,0.0841,0.0809,0.0842,0.0843,0.0862,0.0865,0.0875,0.0891,0.0893,0.0895,0.0896,0.0897,0.0897,0,0,0,0,0,0,0,0.0697,0.0702,0.0751,0.0752,0.0757,0.0782,0.0788,0.0799,0.0829,0.0811,0.0815,0.0826,0.0864,0.0874,0.0877,0.0893,0.0895,0.0897,0.0897,0.0898,0.0983,0.0984,0,0,0,0,0,0,0.069,0.0699,0.0748,0.0753,0.0733,0.0782,0.0789,0.0793,0.083,0.0837,0.0826,0.0828,0.0871,0.0875,0.0879,0.0931,0.0897,0.0898,0.0899,0.0981,0.0983,0.0985,0,0,0,0,0,0,0.0688,0.0693,0.0745,0.073,0.0738,0.0783,0.0787,0.0794,0.0829,0.0841,0.0847,0.0856,0.0872,0.0877,0.0911,0.0931,0.0899,0.09,0.098,0.0982,0.0984,0.1001,0,0,0,0,0,0,0.0685,0.0692,0.0704,0.0729,0.0739,0.0782,0.0787,0.0795,0.0834,0.0839,0.0868,0.0872,0.0873,0.0909,0.0913,0.0932,0.0901,0.0978,0.0981,0.0983,0.0998,0.1003,0.1007,0,0,0,0,0,0.0683,0.0695,0.0703,0.071,0.075,0.0783,0.0791,0.0823,0.0835,0.0855,0.0877,0.0872,0.0929,0.0911,0.0915,0.0935,0.0976,0.098,0.0983,0.0996,0.1002,0.1007,0,0,0,0,0,0,0.0677,0.0701,0.0711,0.0731,0.0762,0.0792,0.0816,0.0836,0.0869,0.0878,0.0887,0.0892,0.0932,0.0935,0.0915,0.0971,0.0954,0.0958,0.0963,0.0968,0.0973,0.0981,0.0902,0,0,0,0,0,0.0679,0.0694,0.0722,0.0742,0.0756,0.079,0.0812,0.0834,0.0862,0.0879,0.09,0.0924,0.0944,0.0958,0.0977,0.1003,0.1011,0.1021,0.1026,0.1029,0.104,0.1072,0.108,0.0995,0.0995,0.0995,0,0,0.0683,0.07,0.0709,0.0742,0.0767,0.0794,0.0805,0.0845,0.0872,0.0877,0.0924,0.0942,0.0957,0.0989,0.1007,0.0995,0.1057,0.1033,0.1036,0.1046,0.1076,0.1084,0.1092,0.0997,0.0997,0.0997,0,0,0.0695,0.0713,0.0729,0.0755,0.0797,0.0815,0.0831,0.0873,0.0897,0.094,0.0951,0.0985,0.1018,0.1032,0.1041,0.1084,0.1082,0.1093,0.1118,0.1148,0.1155,0.1161,0.1172,0.1179,0.1092,0.1092,0.1092,0,0.0702,0.0722,0.0742,0.0767,0.0792,0.0825,0.0853,0.0881,0.0932,0.0953,0.0961,0.1028,0.1039,0.1073,0.1091,0.1093,0.1106,0.109,0.1153,0.1159,0.1165,0.1175,0.1183,0.1093,0.1093,0.1093,0.1093,0,0.0723,0.0748,0.0763,0.0799,0.0828,0.086,0.0895,0.0931,0.0963,0.0992,0.1048,0.1069,0.1109,0.1117,0.1117,0.1167,0.116,0.1154,0.1134,0.1174,0.1183,0.119,0.1095,0.1094,0.1094,0.1094,0,0,0.0715,0.0765,0.0774,0.0796,0.0848,0.0873,0.0916,0.0962,0.0997,0.1047,0.1092,0.1134,0.1157,0.117,0.1177,0.1203,0.1251,0.1201,0.1202,0.1203,0.1312,0.1209,0.1208,0.1257,0.1259,0.126,0.1296,0,0.0728,0.0771,0.0796,0.0845,0.0867,0.0908,0.0945,0.0994,0.1035,0.1087,0.1122,0.1171,0.1172,0.1198,0.1226,0.125,0.1274,0.1241,0.1281,0.1282,0.1178,0.1214,0.1266,0.1301,0.1303,0.1304,0.1305,0,0.074,0.0766,0.0811,0.0863,0.0878,0.0916,0.098,0.1017,0.1086,0.1121,0.1176,0.1208,0.1263,0.1256,0.1319,0.1301,0.1316,0.1326,0.1327,0.1234,0.1194,0.1257,0.1319,0.1318,0.1317,0.1316,0.1315,0,0.072,0.0777,0.0811,0.0832,0.0895,0.093,0.0968,0.1035,0.1073,0.115,0.1192,0.1253,0.1296,0.1332,0.1361,0.1352,0.142,0.1403,0.1322,0.1314,0.1387,0.138,0.1451,0.1451,0.1451,0.1451,0.1451,0,0.0717,0.0746,0.081,0.0832,0.0877,0.0926,0.0984,0.103,0.1103,0.1146,0.1213,0.1252,0.1323,0.1366,0.1381,0.1371,0.1438,0.1335,0.1322,0.1392,0.1386,0.1391,0.1384,0.1452,0.1452,0.1451,0.1451,0,0.0691,0.0732,0.0775,0.0848,0.0872,0.0908,0.099,0.1025,0.1101,0.116,0.1191,0.1274,0.1322,0.137,0.1425,0.1385,0.1391,0.1371,0.1442,0.1431,0.1259,0.1253,0.1281,0.1278,0.1275,0.1273,0.1271,0,0.0677,0.0699,0.0783,0.0808,0.0845,0.0902,0.0937,0.1017,0.105,0.1156,0.1174,0.1256,0.1299,0.1293,0.1346,0.1359,0.1345,0.1333,0.1298,0.126,0.1245,0.1243,0.124,0.1266,0.1266,0.1265,0.1264,0,0.0647,0.0691,0.0731,0.0785,0.0829,0.0863,0.0919,0.0936,0.1019,0.1102,0.1132,0.1158,0.1203,0.1231,0.1252,0.126,0.1331,0.1304,0.1309,0.1277,0.1243,0.123,0.1231,0.1255,0.1256,0.1257,0.1258,0,0.063,0.0652,0.0712,0.0752,0.0797,0.0806,0.0842,0.0875,0.0916,0.1027,0.1031,0.1113,0.1188,0.118,0.1199,0.1197,0.1176,0.1131,0.1145,0.1156,0.1098,0.1035,0.0979,0,0,0,0,0,0.0609,0.0629,0.0667,0.0701,0.074,0.0763,0.0819,0.0853,0.093,0.0924,0.0975,0.1009,0.1035,0.1076,0.1049,0.1141,0.118,0.1103,0.1135,0.1203,0.1214,0.1156,0,0,0,0,0,0,0.0595,0.0634,0.0651,0.0645,0.0654,0.0682,0.0712,0.0764,0.0761,0.0849,0.0871,0.094,0.0984,0.1043,0.1029,0.1041,0.1036,0.1155,0.1152,0.1197,0.1206,0.1215,0.1159,0,0,0,0,0]},{"header":{"parameterUnit":"m.s-1","parameterCategory":2,"la1":30.2991,"la2":30.254,"lo1":-89.0895,"lo2":-89.0444,"dy":0.0017,"dx":0.0017,"nx":28,"ny":28,"refTime":"2024-10-21T03:00:00:Z","depth":"4","parameterNumber":3,"parameterNumberName":"V-component_of_CURRENTS"},"data":[0,0,0,0,0,0,0,0,0,0,0,0,0,0,0,0,0,0,0,0,0,0,0,0,0,0,0,0,0,0,0,0,0,0,0,0,0,0,0,0,0,0,0,0,0,0,0,0,0,0,0,0,0,0,0,0,0,0,0.0392,0.0391,0,0.0351,0.035,0.035,0.0335,0.0335,0.0335,0.0335,0.0315,0.0314,0.0314,0,0,0,0,0,0,0,0,0,0,0,0,0,0.0392,0.0393,0.0392,0.0391,0.0391,0.0351,0.035,0.0349,0.0335,0.0335,0.0335,0.0335,0.0315,0.0314,0.0314,0,0,0,0,0,0,0,0,0,0,0,0,0,0.0375,0.0393,0.0392,0.0379,0.0378,0.0351,0.035,0.0349,0.0335,0.0335,0.0335,0.0336,0.0316,0.0315,0.0313,0.03,0,0,0.031,0.031,0,0,0,0,0,0,0,0,0.0376,0.0375,0.0382,0.038,0.0379,0.0349,0.0343,0.0334,0.0335,0.035,0.0335,0.0336,0.0329,0.0326,0.0316,0.0299,0.0298,0.031,0.0309,0.0309,0.0308,0,0,0,0,0,0,0,0.0378,0.0376,0.0375,0.0381,0.0379,0.0353,0.0352,0.0341,0.0338,0.0349,0.0348,0.0344,0.0328,0.0318,0.0316,0.0298,0.031,0.0309,0.0308,0.0308,0.0289,0.0289,0,0,0,0,0,0,0.0387,0.0378,0.0376,0.0374,0.0379,0.0353,0.0352,0.0357,0.0337,0.0335,0.0344,0.0344,0.0319,0.0317,0.0315,0.0319,0.0309,0.0308,0.0307,0.0289,0.0289,0.0289,0,0,0,0,0,0,0.0388,0.0388,0.0378,0.0375,0.0372,0.0354,0.036,0.0356,0.0351,0.0334,0.0332,0.0343,0.0319,0.0317,0.0314,0.0317,0.0307,0.0306,0.0289,0.0289,0.0289,0.0313,0,0,0,0,0,0,0.0388,0.0389,0.0396,0.0376,0.0372,0.0367,0.0359,0.0355,0.0349,0.0348,0.0332,0.033,0.032,0.0316,0.0313,0.0316,0.0305,0.0288,0.0289,0.0289,0.0312,0.0314,0.0316,0,0,0,0,0,0.0388,0.0392,0.0397,0.0396,0.0384,0.0367,0.0363,0.0349,0.0348,0.0346,0.034,0.0331,0.0316,0.0315,0.0312,0.0314,0.0288,0.0289,0.0289,0.0311,0.0314,0.0316,0,0,0,0,0,0,0.0389,0.039,0.0395,0.0398,0.0389,0.0365,0.0359,0.0353,0.0344,0.0347,0.0333,0.033,0.0329,0.0318,0.0318,0.031,0.0301,0.03,0.0319,0.0321,0.0323,0.0322,0.0304,0,0,0,0,0,0.0396,0.0403,0.0396,0.0398,0.0397,0.0381,0.0373,0.0366,0.0355,0.0351,0.034,0.0331,0.0325,0.0322,0.0313,0.0308,0.0287,0.0307,0.0309,0.0311,0.0308,0.0284,0.0283,0.0291,0.0291,0.029,0,0,0.0394,0.0397,0.0399,0.0399,0.0391,0.0387,0.0377,0.0368,0.0364,0.0351,0.0344,0.0337,0.0326,0.0322,0.032,0.0315,0.0297,0.0311,0.0313,0.0309,0.0284,0.0283,0.0282,0.0291,0.0291,0.0291,0,0,0.039,0.0401,0.0405,0.0402,0.0398,0.039,0.0391,0.0375,0.0371,0.0364,0.0357,0.0353,0.0338,0.0332,0.0327,0.0333,0.0308,0.0332,0.034,0.0317,0.0316,0.0315,0.0284,0.028,0.0332,0.0332,0.0332,0,0.0388,0.0398,0.0401,0.0403,0.0401,0.0395,0.0395,0.0388,0.0372,0.0372,0.0367,0.035,0.0341,0.0339,0.0342,0.0337,0.0317,0.0334,0.0319,0.0317,0.0316,0.0284,0.0279,0.0333,0.0333,0.0333,0.0333,0,0.0386,0.0396,0.0396,0.0405,0.0403,0.04,0.0397,0.0395,0.0392,0.0384,0.038,0.0366,0.0357,0.0355,0.035,0.034,0.0327,0.0324,0.0313,0.0316,0.0283,0.0277,0.0335,0.0335,0.0334,0.0334,0,0,0.0375,0.0393,0.0394,0.0405,0.0407,0.0404,0.0406,0.0406,0.041,0.0396,0.0394,0.0384,0.0378,0.0372,0.0365,0.0346,0.0318,0.0333,0.0331,0.0302,0.0259,0.0246,0.0239,0.0314,0.0313,0.0313,0.0238,0,0.0373,0.0385,0.0393,0.0402,0.0408,0.0412,0.0416,0.0416,0.0414,0.041,0.0399,0.0395,0.0385,0.0384,0.0364,0.0333,0.0306,0.0338,0.026,0.0257,0.0245,0.0233,0.0311,0.0234,0.0233,0.0232,0.0231,0,0.0368,0.038,0.0393,0.0414,0.0417,0.0422,0.0434,0.0437,0.0436,0.0434,0.0426,0.0415,0.0395,0.0383,0.0322,0.0343,0.0301,0.0271,0.0267,0.0243,0.0235,0.023,0.0221,0.0222,0.0222,0.0223,0.0224,0,0.0361,0.038,0.0395,0.04,0.042,0.0429,0.0439,0.0445,0.0454,0.045,0.0451,0.0424,0.0409,0.0358,0.0301,0.0309,0.0222,0.0226,0.017,0.0168,0.0191,0.0193,0.017,0.017,0.017,0.0171,0.0171,0,0.0355,0.0367,0.0397,0.0403,0.0423,0.0436,0.0456,0.0461,0.0472,0.0482,0.0466,0.0459,0.0402,0.0351,0.0296,0.0213,0.0215,0.0163,0.0147,0.0203,0.0207,0.0187,0.019,0.0168,0.0168,0.0169,0.0169,0,0.034,0.0361,0.038,0.0409,0.0421,0.0435,0.047,0.0483,0.0494,0.0503,0.0504,0.0477,0.0414,0.0346,0.0256,0.0207,0.0131,0.0099,0.0154,0.0144,0.0091,0.0096,0.0028,0.0027,0.0026,0.0026,0.0025,0,0.0332,0.0343,0.0381,0.0398,0.0413,0.0442,0.0462,0.0488,0.0505,0.0512,0.0513,0.0466,0.0436,0.0298,0.0228,0.011,0.0097,0.0048,0.0077,0.0085,0.0076,0.0083,0.0089,0.0024,0.0023,0.0023,0.0023,0,0.0314,0.0332,0.0347,0.0384,0.0412,0.0445,0.0478,0.0492,0.0521,0.0531,0.0515,0.0457,0.0383,0.0293,0.0197,0.0117,0.0078,0.0038,0.004,0.0067,0.0078,0.0072,0.0079,0.002,0.002,0.002,0.0021,0,0.0296,0.0303,0.033,0.0362,0.0401,0.0438,0.0461,0.0484,0.0504,0.0522,0.0511,0.0448,0.0415,0.0294,0.0209,0.0127,0.0111,0.0083,0.0082,0.0085,0.0129,0.0153,0.0096,0,0,0,0,0,0.0276,0.0285,0.0309,0.0347,0.0389,0.0418,0.0466,0.049,0.052,0.0509,0.0515,0.0451,0.0336,0.0291,0.0206,0.0185,0.0089,0.0081,0.0055,0.0002,0.0006,0.0048,0,0,0,0,0,0,0.026,0.0278,0.0295,0.0332,0.0362,0.0409,0.0445,0.0469,0.047,0.0489,0.0433,0.0418,0.0309,0.0382,0.02,0.0177,0.0146,0.0034,0.0032,-0.0,0.0003,0.0006,0.0051,0,0,0,0,0]}]]